Weather Roundup
Issued by NWS

Home | Current Version | Previous Version | Graphics & Text | Print | Product List | Glossary Off
Versions: 1 2 3 4 5 6 7 8 9 10 11 12 13 14 15 16 17 18 19 20 21 22 23 24 25 26 27 28 29 30 31 32 33 34 35 36 37 38 39 40 41 42 43 44 45 46 47 48 49 50

000
NZUS93 KARX 240759
HRRWXR

CURRENT HOURLY OBSERVATIONS ACROSS
MUCH OF THE UPPER MISSISSIPPI VALLEY
NATIONAL WEATHER SERVICE LA CROSSE WI
300 AM CDT SUN MAY 24 2015


...SOUTHEAST MINNESOTA...


CITY           SKY/WX    TMP DP  RH WIND       PRES   REMARKS
ROCHESTER      CLOUDY    62  50  64 S7        30.13S
ROCHESTER/MAYO CLOUDY    64  49  59 SE7       30.13R
WINONA         CLOUDY    59  54  82 CALM      30.14S
AUSTIN         CLOUDY    63  52  67 SE5       30.12R
ALBERT LEA     CLOUDY    63  52  67 SE3       30.11R
DODGE CENTER   CLOUDY    63  50  63 SE8       30.12R
PRESTON        CLOUDY    61  49  65 CALM      30.14S
OWATONNA       CLOUDY    63  52  67 SE6       30.11R
FARIBAULT      CLOUDY    59  52  77 NE3       30.10F
$$

...ELSEWHERE IN MINNESOTA...


CITY           SKY/WX    TMP DP  RH WIND       PRES   REMARKS
MINNEAPOLIS    CLOUDY    60  51  72 NE5       30.11S
INTNL FALLS    CLEAR     49  42  77 SW5       30.11R
DULUTH         PTCLDY    49  42  77 CALM      30.14F
RED WING       CLOUDY    57  48  72 CALM      30.11R
REDWOOD FALLS  CLOUDY    62  50  64 SE8       30.08S
MANKATO        CLOUDY    61  50  67 E5        30.09F
WORTHINGTON    CLOUDY    57  55  94 E3        30.07F
FAIRMONT       CLOUDY    61  48  63 E6        30.07F
$$

...SOUTHWEST WISCONSIN...


CITY           SKY/WX    TMP DP  RH WIND       PRES   REMARKS
LA CROSSE      CLOUDY    60  50  69 SE6       30.14R
PRAIRIE DU CHI CLOUDY    56  50  79 E3        30.14S
BOSCOBEL       CLOUDY    55  50  83 CALM      30.16R
LONE ROCK      NOT AVBL
PLATTEVILLE    PTCLDY    61  49  65 SE6       30.16R
FORT MC COY    NOT AVBL
VIROQUA        FAIR      60  45  56 SE7       30.16R
WIS DELLS      CLEAR     53  44  71 CALM      30.16R
$$

...ELSEWHERE IN WISCONSIN...


CITY           SKY/WX    TMP DP  RH WIND       PRES   REMARKS
MILWAUKEE      PTCLDY    55  39  54 CALM      30.18R
MADISON        MOCLDY    53  47  79 CALM      30.17R
GREEN BAY      PTCLDY    62  42  47 S5        30.17R
EAU CLAIRE     CLOUDY    58  47  66 NE3       30.13S
BLACK RVR FLS  FAIR      51  50  95 CALM      30.15S
MEDFORD        CLOUDY    55  50  84 CALM      30.17S
WAUSAU         MOCLDY    57  49  74 E3        30.16R
WIS RAPIDS     PTCLDY    54  45  71 CALM      30.18R
MARSHFIELD     PTCLDY    57  46  66 NE3       30.16S
RICE LAKE      CLOUDY    57  52  84 N5        30.16F
$$

...NORTHEAST IOWA...


CITY           SKY/WX    TMP DP  RH WIND       PRES   REMARKS
DECORAH        CLOUDY    63  48  59 SE5       30.13S
MASON CITY     CLOUDY    63  52  67 E6        30.11S
CHARLES CITY   CLOUDY    63  50  63 E7        30.12S
OELWEIN        CLOUDY    63  52  67 SE7       30.14R
$$

...ELSEWHERE IN IOWA...


CITY           SKY/WX    TMP DP  RH WIND       PRES   REMARKS
DES MOINES     LGT RAIN  63  56  78 SE12      30.06S
IOWA CITY      CLOUDY    65  52  62 SE9       30.13S
FORT DODGE     CLOUDY    61  54  77 E6        30.07F
$$

...NORTHERN ILLINOIS...


CITY           SKY/WX    TMP DP  RH WIND       PRES   REMARKS
CHICAGO-OHARE  MOCLDY    62  47  57 S5        30.19R
CHICAGO-MIDWAY MOCLDY    67  46  47 S6        30.19S
MOLINE         LGT RAIN  66  51  58 VRB7      30.13F
ROCKFORD       CLOUDY    62  49  62 S5        30.20R
PEORIA         CLOUDY    69  49  48 SE3       30.16S
$$

NOTE: "FAIR" INDICATES FEW OR NO CLOUDS BELOW 12,000 FEET WITH NO
SIGNIFICANT WEATHER AND/OR OBSTRUCTIONS TO VISIBILITY. WIND
SPEEDS ARE IN MILES-PER-HOUR.



USA.gov is the U.S. government's official web portal to all federal, state and local government web resources and services.